Starlink 32451

operational
NORAD ID: 61857 Int'l Des: 2024-202 Owner: SPXS Country: US Constellation: starlink
LEOCIRCULAR

About Starlink 32451

Description loading...

Live Position

Loading 3D Globe...

Upcoming Passes

Altitude History

Altitude vs Time

uPlot chart will show altitude changes over time

Two-Line Element Set

1 61857U 24202N 26036.09953901 -.00000957 00000-0 -25275-4 0 9998
2 61857 43.0016 62.0208 0001499 286.2416 73.8271 15.27565502 70354
Epoch: Feb 5, 2026 • Age: 11 hours

Current Status

Altitude 484.5 km
Velocity 7.62 km/s
Sub-Earth Point -11.45°S, 71.76°E
Launch Date Nov 7, 2024
Age 1.2 years
Type internet

Technical Details

Classification Payload
Mass 730.00 kg
Dry Mass 700.00 kg
Total Mass 730.00 kg
Length 0.30 m
Diameter 4.10 m
Span 29.00 m
Shape Box + pan
Manufacturer SPXS
Bus Type Starlink V2M
Phase Status In Orbit
Owner/State SPXS/US

Large Constellations

Loading constellations...